This is the latest recevied weather packets stored in our database for station/object N4HAC. If no packets are shown the sender has not sent any weather packets the latest 10 day(s).
| Time | Temp. | Humidity | Pressure | Rain* | Wind** | Luminosity | Snow |
|---|---|---|---|---|---|---|---|
| 1777972527 | 11.11° C | 92% | 1006.1 hPa | 0 mm | - | 0 W/m² | - |
| 1777972226 | 11.11° C | 92% | 1005.9 hPa | 0 mm | - | 0 W/m² | - |
| 1777971924 | 11.11° C | 92% | 1006.1 hPa | 0 mm | - | 0 W/m² | - |
| 1777971621 | 10.56° C | 93% | 1005.8 hPa | 0 mm | - | 0 W/m² | - |
| 1777971319 | 10.56° C | 91% | 1006 hPa | 0 mm | - | 0 W/m² | - |
| 1777971017 | 11.11° C | 89% | 1005.8 hPa | 0 mm | - | 0 W/m² | - |
| 1777970715 | 11.67° C | 89% | 1005.8 hPa | 0 mm | - | 0 W/m² | - |
| 1777970413 | 11.11° C | 90% | 1006 hPa | 0 mm | - | 0 W/m² | - |
| 1777970110 | 11.11° C | 89% | 1005.8 hPa | 0 mm | - | 0 W/m² | - |
| 1777969806 | 11.67° C | 87% | 1005.8 hPa | 0 mm | - | 0 W/m² | - |
| 1777969501 | 12.22° C | 87% | 1005.9 hPa | 0 mm | - | 0 W/m² | - |
| 1777969199 | 12.22° C | 88% | 1005.9 hPa | 0 mm | - | 0 W/m² | - |
| 1777968895 | 11.67° C | 88% | 1005.8 hPa | 0 mm | - | 0 W/m² | - |
| 1777968592 | 11.67° C | 89% | 1006 hPa | 0 mm | - | 0 W/m² | - |
| 1777968288 | 11.67° C | 91% | 1005.8 hPa | 0 mm | - | 0 W/m² | - |
| 1777967984 | 10.56° C | 92% | 1005.7 hPa | 0 mm | - | 0 W/m² | - |
| 1777967681 | 11.11° C | 92% | 1005.7 hPa | 0 mm | - | 0 W/m² | - |
| 1777967378 | 11.11° C | 91% | 1005.5 hPa | 0 mm | - | 0 W/m² | - |
| 1777967076 | 11.11° C | 91% | 1005.4 hPa | 0 mm | - | 0 W/m² | - |
| 1777966772 | 11.11° C | 94% | 1005.5 hPa | 0 mm | - | 0 W/m² | - |
| 1777966470 | 10.56° C | 96% | 1005.5 hPa | 0 mm | - | 0 W/m² | - |
| 1777966167 | 10° C | 95% | 1005.5 hPa | 0 mm | - | 0 W/m² | - |
| 1777965863 | 9.44° C | 94% | 1005.6 hPa | 0 mm | - | 0 W/m² | - |
| 1777965560 | 10.56° C | 94% | 1005.7 hPa | 0 mm | - | 0 W/m² | - |
| 1777965256 | 10.56° C | 95% | 1005.6 hPa | 0 mm | - | 0 W/m² | - |
* Rain latest hour (hover to see other rain measurements)
** Current wind speed in m/s (hover to see current wind gust speed)